| time (UTC) | temp C | wind direction | speed KPH | gust KPH | rain 1hr cm | rain 24hr cm | rain mn cm | humidity % | barometer mb |
| 20260508132930 | 11 | 155 | 4.8 | 6.4 | 0.00 | 0.00 | 0.00 | 50 | 1018.5 |
| 20260508132428 | 10 | 314 | 3.2 | 9.7 | 0.00 | 0.00 | 0.00 | 46 | 1018.3 |
| 20260508131924 | 9 | 333 | 1.6 | 3.2 | 0.00 | 0.00 | 0.00 | 60 | 1018.3 |
| 20260508131420 | 8 | 257 | 1.6 | 1.6 | 0.00 | 0.00 | 0.00 | 65 | 1018.3 |
| 20260508130917 | 7 | 24 | 0.0 | 3.2 | 0.00 | 0.00 | 0.00 | 71 | 1018.2 |
| 20260508130414 | 7 | 93 | 3.2 | 3.2 | 0.00 | 0.00 | 0.00 | 74 | 1018.6 |
| 20260508125909 | 6 | 81 | 3.2 | 3.2 | 0.00 | 0.00 | 0.00 | 75 | 1018.6 |
| 20260508125400 | 5 | 76 | 3.2 | 4.8 | 0.00 | 0.00 | 0.00 | 75 | 1018.6 |
| 20260508124858 | 6 | 28 | 0.0 | 0.0 | 0.00 | 0.00 | 0.00 | 76 | 1018.5 |
| 20260508124356 | 5 | 227 | 3.2 | 6.4 | 0.00 | 0.00 | 0.00 | 77 | 1018.5 |
| 20260508123854 | 5 | 54 | 1.6 | 3.2 | 0.00 | 0.00 | 0.00 | 77 | 1018.6 |
| 20260508123352 | 5 | 52 | 0.0 | 1.6 | 0.00 | 0.00 | 0.00 | 79 | 1018.6 |
| 20260508122848 | 4 | 89 | 1.6 | 1.6 | 0.00 | 0.00 | 0.00 | 78 | 1018.5 |
| 20260508122344 | 4 | 264 | 3.2 | 11.3 | 0.00 | 0.00 | 0.00 | 80 | 1018.6 |
| 20260508121842 | 3 | 174 | 1.6 | 6.4 | 0.00 | 0.00 | 0.00 | 82 | 1018.6 |
| 20260508121340 | 3 | 207 | 3.2 | 6.4 | 0.00 | 0.00 | 0.00 | 81 | 1018.7 |
| 20260508120837 | 3 | 224 | 6.4 | 6.4 | 0.00 | 0.00 | 0.00 | 81 | 1018.8 |
| 20260508120335 | 3 | 249 | 3.2 | 6.4 | 0.00 | 0.00 | 0.00 | 82 | 1018.5 |
| 20260508115832 | 3 | 200 | 3.2 | 3.2 | 0.00 | 0.00 | 0.00 | 84 | 1018.8 |
| 20260508115330 | 2 | 59 | 0.0 | 0.0 | 0.00 | 0.00 | 0.00 | 85 | 1018.6 |
| 20260508114826 | 2 | 288 | 0.0 | 3.2 | 0.00 | 0.00 | 0.00 | 87 | 1018.7 |
| 20260508114323 | 2 | 308 | 0.0 | 0.0 | 0.00 | 0.00 | 0.00 | 85 | 1018.7 |
| 20260508113820 | 2 | 71 | 1.6 | 3.2 | 0.00 | 0.00 | 0.00 | 86 | 1018.7 |
| 20260508113318 | 2 | 310 | 1.6 | 1.6 | 0.00 | 0.00 | 0.00 | 86 | 1018.5 |
| 20260508112814 | 2 | 68 | 1.6 | 1.6 | 0.00 | 0.00 | 0.00 | 87 | 1018.7 |
| 20260508112312 | 1 | 52 | 3.2 | 3.2 | 0.00 | 0.00 | 0.00 | 87 | 1018.5 |
| 20260508111808 | 1 | 49 | 1.6 | 1.6 | 0.00 | 0.00 | 0.00 | 89 | 1018.3 |
| 20260508111305 | 1 | 150 | 0.0 | 0.0 | 0.00 | 0.00 | 0.00 | 87 | 1018.6 |
| 20260508110802 | 1 | 283 | 1.6 | 4.8 | 0.00 | 0.00 | 0.00 | 86 | 1018.6 |
| 20260508110259 | 1 | 231 | 4.8 | 4.8 | 0.00 | 0.00 | 0.00 | 87 | 1018.6 |
| 20260508105759 | 1 | 239 | 3.2 | 4.8 | 0.00 | 0.00 | 0.00 | 86 | 1018.5 |
| 20260508105256 | 1 | 226 | 3.2 | 4.8 | 0.00 | 0.00 | 0.00 | 86 | 1018.1 |
| 20260508104753 | 1 | 190 | 0.0 | 9.7 | 0.00 | 0.00 | 0.00 | 86 | 1018.1 |
| 20260508104250 | 1 | 174 | 1.6 | 3.2 | 0.00 | 0.00 | 0.00 | 89 | 1018.1 |
| 20260508103747 | 1 | 144 | 0.0 | 1.6 | 0.00 | 0.00 | 0.00 | 90 | 1017.9 |
| 20260508103244 | 1 | 34 | 0.0 | 1.6 | 0.00 | 0.00 | 0.00 | 90 | 1018.0 |
| 20260508102741 | 1 | 248 | 0.0 | 0.0 | 0.00 | 0.00 | 0.00 | 89 | 1018.1 |
| 20260508102239 | 1 | 58 | 1.6 | 3.2 | 0.00 | 0.00 | 0.00 | 89 | 1017.9 |
| 20260508101736 | 1 | 224 | 0.0 | 1.6 | 0.00 | 0.00 | 0.00 | 88 | 1017.8 |
| 20260508101234 | 1 | 185 | 0.0 | 3.2 | 0.00 | 0.00 | 0.00 | 88 | 1017.7 |
| 20260508100731 | 1 | 177 | 3.2 | 6.4 | 0.00 | 0.00 | 0.00 | 89 | 1017.6 |
| 20260508100229 | 1 | 165 | 0.0 | 0.0 | 0.00 | 0.00 | 0.00 | 89 | 1017.8 |
| 20260508095725 | 1 | 331 | 1.6 | 1.6 | 0.00 | 0.00 | 0.00 | 89 | 1017.7 |
| 20260508095223 | 1 | 207 | 0.0 | 1.6 | 0.00 | 0.00 | 0.00 | 88 | 1017.7 |
| 20260508094719 | 1 | 213 | 0.0 | 1.6 | 0.00 | 0.00 | 0.00 | 88 | 1017.7 |
| 20260508094216 | 1 | 232 | 3.2 | 3.2 | 0.00 | 0.00 | 0.00 | 90 | 1017.8 |
| 20260508093713 | 0 | 103 | 0.0 | 1.6 | 0.00 | 0.00 | 0.00 | 91 | 1017.6 |
| 20260508093211 | 0 | 160 | 0.0 | 0.0 | 0.00 | 0.00 | 0.00 | 91 | 1017.8 |
| 20260508092708 | 0 | 93 | 3.2 | 3.2 | 0.00 | 0.00 | 0.00 | 91 | 1017.7 |
| 20260508092206 | 0 | 278 | 0.0 | 1.6 | 0.00 | 0.00 | 0.00 | 91 | 1017.9 |
| 20260508091703 | 0 | 222 | 0.0 | 0.0 | 0.00 | 0.00 | 0.00 | 90 | 1018.0 |
| 20260508091200 | 1 | 220 | 0.0 | 0.0 | 0.00 | 0.00 | 0.00 | 89 | 1017.8 |
| 20260508090658 | 1 | 275 | 0.0 | 1.6 | 0.00 | 0.00 | 0.00 | 89 | 1017.8 |
| 20260508090155 | 0 | 156 | 1.6 | 1.6 | 0.00 | 0.00 | 0.00 | 91 | 1017.8 |
| 20260508085650 | 1 | 85 | 0.0 | 1.6 | 0.00 | 0.00 | 0.00 | 90 | 1017.6 |
| 20260508085149 | 1 | 74 | 0.0 | 1.6 | 0.00 | 0.00 | 0.00 | 89 | 1017.8 |
| 20260508084640 | 1 | 125 | 0.0 | 0.0 | 0.00 | 0.00 | 0.00 | 88 | 1017.6 |
| 20260508084137 | 1 | 133 | 0.0 | 0.0 | 0.00 | 0.00 | 0.00 | 88 | 1017.5 |
| 20260508083634 | 1 | 109 | 3.2 | 3.2 | 0.00 | 0.00 | 0.00 | 88 | 1017.6 |
| 20260508083132 | 1 | 147 | 0.0 | 1.6 | 0.00 | 0.00 | 0.00 | 89 | 1017.4 |
| 20260508082626 | 1 | 133 | 0.0 | 1.6 | 0.00 | 0.00 | 0.00 | 89 | 1017.4 |
| 20260508082124 | 1 | 155 | 0.0 | 1.6 | 0.00 | 0.00 | 0.00 | 89 | 1017.5 |
| 20260508081622 | 1 | 196 | 0.0 | 0.0 | 0.00 | 0.00 | 0.00 | 89 | 1017.3 |
| 20260508081118 | 1 | 215 | 0.0 | 3.2 | 0.00 | 0.00 | 0.00 | 88 | 1017.4 |
| 20260508080615 | 1 | 107 | 0.0 | 1.6 | 0.00 | 0.00 | 0.00 | 87 | 1017.4 |
| 20260508080114 | 1 | 226 | 0.0 | 0.0 | 0.00 | 0.00 | 0.00 | 87 | 1017.2 |
| 20260508075609 | 1 | 145 | 0.0 | 1.6 | 0.00 | 0.00 | 0.00 | 88 | 1017.3 |
| 20260508075107 | 1 | 169 | 0.0 | 1.6 | 0.00 | 0.00 | 0.00 | 87 | 1017.1 |
| 20260508074604 | 1 | 205 | 0.0 | 0.0 | 0.00 | 0.00 | 0.00 | 87 | 1017.2 |
| 20260508074101 | 2 | 93 | 1.6 | 1.6 | 0.00 | 0.00 | 0.00 | 86 | 1017.3 |
| 20260508073559 | 2 | 249 | 3.2 | 3.2 | 0.00 | 0.00 | 0.00 | 86 | 1017.2 |
| 20260508073056 | 1 | 192 | 1.6 | 3.2 | 0.00 | 0.00 | 0.00 | 87 | 1017.2 |
| 20260508072551 | 2 | 84 | 1.6 | 1.6 | 0.00 | 0.00 | 0.00 | 86 | 1017.1 |
| 20260508072049 | 2 | 74 | 1.6 | 3.2 | 0.00 | 0.00 | 0.00 | 85 | 1017.3 |
| 20260508071547 | 2 | 87 | 0.0 | 1.6 | 0.00 | 0.00 | 0.00 | 84 | 1017.3 |
| 20260508071044 | 2 | 192 | 0.0 | 1.6 | 0.00 | 0.00 | 0.00 | 85 | 1017.3 |
| 20260508070542 | 2 | 59 | 3.2 | 3.2 | 0.00 | 0.00 | 0.00 | 84 | 1017.2 |
| 20260508070040 | 2 | 136 | 0.0 | 1.6 | 0.00 | 0.00 | 0.00 | 83 | 1017.1 |
| 20260508065537 | 2 | 121 | 0.0 | 0.0 | 0.00 | 0.00 | 0.00 | 85 | 1017.3 |
| 20260508065035 | 2 | 144 | 0.0 | 0.0 | 0.00 | 0.00 | 0.00 | 84 | 1017.2 |
| 20260508064532 | 2 | 286 | 0.0 | 0.0 | 0.00 | 0.00 | 0.00 | 82 | 1017.3 |
| 20260508064030 | 2 | 197 | 0.0 | 3.2 | 0.00 | 0.00 | 0.00 | 82 | 1017.1 |
| 20260508063527 | 3 | 233 | 1.6 | 3.2 | 0.00 | 0.00 | 0.00 | 81 | 1017.1 |
| 20260508063026 | 3 | 184 | 1.6 | 3.2 | 0.00 | 0.00 | 0.00 | 81 | 1017.1 |
| 20260508062523 | 3 | 104 | 1.6 | 3.2 | 0.00 | 0.00 | 0.00 | 79 | 1016.9 |
| 20260508062019 | 3 | 272 | 0.0 | 1.6 | 0.00 | 0.00 | 0.00 | 80 | 1017.1 |
| 20260508061517 | 3 | 86 | 1.6 | 1.6 | 0.00 | 0.00 | 0.00 | 79 | 1017.0 |
| 20260508061013 | 3 | 213 | 0.0 | 0.0 | 0.00 | 0.00 | 0.00 | 80 | 1016.8 |
| 20260508060510 | 3 | 287 | 1.6 | 3.2 | 0.00 | 0.00 | 0.00 | 78 | 1016.9 |
| 20260508060008 | 4 | 58 | 1.6 | 3.2 | 0.00 | 0.00 | 0.00 | 75 | 1016.8 |
| 20260508055503 | 4 | 284 | 0.0 | 4.8 | 0.00 | 0.00 | 0.00 | 77 | 1016.8 |
| 20260508054959 | 3 | 180 | 0.0 | 3.2 | 0.00 | 0.00 | 0.00 | 78 | 1016.8 |
| 20260508054456 | 4 | 64 | 4.8 | 6.4 | 0.00 | 0.00 | 0.00 | 77 | 1016.9 |
| 20260508053953 | 5 | 115 | 3.2 | 3.2 | 0.00 | 0.00 | 0.00 | 72 | 1017.1 |
| 20260508053450 | 5 | 158 | 3.2 | 3.2 | 0.00 | 0.00 | 0.00 | 75 | 1017.1 |
| 20260508052948 | 4 | 270 | 1.6 | 4.8 | 0.00 | 0.00 | 0.00 | 75 | 1017.1 |
| 20260508052446 | 5 | 258 | 4.8 | 4.8 | 0.00 | 0.00 | 0.00 | 73 | 1017.0 |
| 20260508051942 | 5 | 199 | 3.2 | 4.8 | 0.00 | 0.00 | 0.00 | 75 | 1017.0 |
| 20260508051437 | 5 | 160 | 0.0 | 0.0 | 0.00 | 0.00 | 0.00 | 74 | 1017.1 |
| 20260508050934 | 5 | 75 | 0.0 | 4.8 | 0.00 | 0.00 | 0.00 | 71 | 1017.3 |
| 20260508050431 | 6 | 238 | 0.0 | 4.8 | 0.00 | 0.00 | 0.00 | 72 | 1017.2 |
| 20260508045926 | 5 | 101 | 0.0 | 6.4 | 0.00 | 0.00 | 0.00 | 72 | 1017.1 |
| 20260508045424 | 6 | 258 | 4.8 | 6.4 | 0.00 | 0.00 | 0.00 | 71 | 1017.0 |
| 20260508044922 | 5 | 107 | 6.4 | 6.4 | 0.00 | 0.00 | 0.00 | 76 | 1017.0 |
| 20260508044419 | 5 | 126 | 3.2 | 3.2 | 0.00 | 0.00 | 0.00 | 69 | 1017.0 |
| 20260508043914 | 5 | 84 | 3.2 | 6.4 | 0.00 | 0.00 | 0.00 | 71 | 1016.9 |
| 20260508043412 | 5 | 63 | 0.0 | 1.6 | 0.00 | 0.00 | 0.00 | 73 | 1016.8 |
| 20260508042908 | 5 | 98 | 3.2 | 6.4 | 0.00 | 0.00 | 0.00 | 64 | 1016.7 |
| 20260508042407 | 5 | 81 | 0.0 | 3.2 | 0.00 | 0.00 | 0.00 | 70 | 1016.8 |
| 20260508041903 | 6 | 103 | 0.0 | 3.2 | 0.00 | 0.00 | 0.00 | 66 | 1016.5 |
| 20260508041359 | 7 | 197 | 1.6 | 3.2 | 0.00 | 0.00 | 0.00 | 68 | 1016.5 |
| 20260508040855 | 7 | 51 | 3.2 | 4.8 | 0.00 | 0.00 | 0.00 | 68 | 1016.2 |
| 20260508040353 | 7 | 206 | 0.0 | 4.8 | 0.00 | 0.00 | 0.00 | 61 | 1016.3 |
| 20260508035850 | 8 | 267 | 4.8 | 6.4 | 0.00 | 0.00 | 0.00 | 57 | 1016.3 |
| 20260508035347 | 7 | 72 | 3.2 | 3.2 | 0.00 | 0.00 | 0.00 | 58 | 1016.1 |
| 20260508034844 | 10 | 233 | 3.2 | 4.8 | 0.00 | 0.00 | 0.00 | 54 | 1016.3 |
| 20260508034342 | 9 | 86 | 0.0 | 1.6 | 0.00 | 0.00 | 0.00 | 50 | 1016.2 |
| 20260508033838 | 9 | 151 | 3.2 | 4.8 | 0.00 | 0.00 | 0.00 | 51 | 1016.2 |
| 20260508033336 | 9 | 122 | 3.2 | 11.3 | 0.00 | 0.00 | 0.00 | 50 | 1015.9 |
| 20260508032833 | 9 | 54 | 4.8 | 4.8 | 0.00 | 0.00 | 0.00 | 50 | 1016.0 |
| 20260508032331 | 10 | 254 | 3.2 | 6.4 | 0.00 | 0.00 | 0.00 | 48 | 1015.9 |
| 20260508031828 | 8 | 81 | 4.8 | 4.8 | 0.00 | 0.00 | 0.00 | 55 | 1015.9 |
| 20260508031324 | 8 | 338 | 3.2 | 4.8 | 0.00 | 0.00 | 0.00 | 52 | 1016.1 |
| 20260508030820 | 8 | 78 | 6.4 | 9.7 | 0.00 | 0.00 | 0.00 | 53 | 1015.8 |
| 20260508030318 | 7 | 153 | 0.0 | 0.0 | 0.00 | 0.00 | 0.00 | 67 | 1015.8 |
| 20260508025814 | 7 | 109 | 1.6 | 3.2 | 0.00 | 0.00 | 0.00 | 65 | 1015.8 |
| 20260508025312 | 8 | 50 | 3.2 | 3.2 | 0.00 | 0.00 | 0.00 | 64 | 1015.7 |
| 20260508024808 | 7 | 199 | 4.8 | 12.9 | 0.00 | 0.00 | 0.00 | 52 | 1015.5 |
| 20260508024304 | 8 | 103 | 0.0 | 3.2 | 0.00 | 0.00 | 0.00 | 59 | 1015.4 |
| 20260508023801 | 9 | 113 | 1.6 | 1.6 | 0.00 | 0.00 | 0.00 | 59 | 1015.6 |
| 20260508023258 | 10 | 252 | 0.0 | 1.6 | 0.00 | 0.00 | 0.00 | 54 | 1015.3 |
| 20260508022754 | 9 | 133 | 3.2 | 14.5 | 0.00 | 0.00 | 0.00 | 49 | 1015.4 |
| 20260508022251 | 9 | 83 | 3.2 | 4.8 | 0.00 | 0.00 | 0.00 | 55 | 1015.4 |
| 20260508021748 | 9 | 141 | 0.0 | 1.6 | 0.00 | 0.00 | 0.00 | 59 | 1015.3 |
| 20260508021243 | 10 | 174 | 4.8 | 9.7 | 0.00 | 0.00 | 0.00 | 55 | 1015.3 |
| 20260508020740 | 10 | 188 | 1.6 | 12.9 | 0.00 | 0.00 | 0.00 | 54 | 1015.1 |
| 20260508020238 | 10 | 119 | 0.0 | 1.6 | 0.00 | 0.00 | 0.00 | 52 | 1015.3 |
| 20260508015735 | 10 | 164 | 9.7 | 11.3 | 0.00 | 0.00 | 0.00 | 50 | 1015.0 |
| 20260508015232 | 11 | 232 | 1.6 | 3.2 | 0.00 | 0.00 | 0.00 | 52 | 1015.2 |
| 20260508014729 | 10 | 63 | 1.6 | 1.6 | 0.00 | 0.00 | 0.00 | 55 | 1015.1 |
| 20260508014226 | 10 | 166 | 3.2 | 4.8 | 0.00 | 0.00 | 0.00 | 52 | 1015.1 |
| 20260508013721 | 11 | 196 | 1.6 | 4.8 | 0.00 | 0.00 | 0.00 | 53 | 1014.8 |
| 20260508013218 | 10 | 86 | 19.3 | 22.5 | 0.00 | 0.00 | 0.00 | 51 | 1014.8 |
| 20260508012716 | 10 | 91 | 3.2 | 3.2 | 0.00 | 0.00 | 0.00 | 58 | 1014.7 |
| 20260508012212 | 11 | 267 | 3.2 | 6.4 | 0.00 | 0.00 | 0.00 | 49 | 1014.5 |
| 20260508011711 | 11 | 205 | 0.0 | 9.7 | 0.00 | 0.00 | 0.00 | 54 | 1014.5 |
| 20260508011208 | 11 | 249 | 0.0 | 4.8 | 0.00 | 0.00 | 0.00 | 54 | 1014.4 |
| 20260508010704 | 11 | 105 | 4.8 | 9.7 | 0.00 | 0.00 | 0.00 | 52 | 1014.3 |
| 20260508010202 | 11 | 166 | 3.2 | 4.8 | 0.00 | 0.00 | 0.00 | 52 | 1014.3 |
| 20260508005659 | 10 | 150 | 0.0 | 1.6 | 0.00 | 0.00 | 0.00 | 54 | 1014.3 |
| 20260508005156 | 10 | 95 | 1.6 | 3.2 | 0.00 | 0.00 | 0.00 | 53 | 1014.1 |
| 20260508004651 | 11 | 245 | 1.6 | 4.8 | 0.00 | 0.00 | 0.00 | 51 | 1014.1 |
| 20260508004148 | 11 | 263 | 6.4 | 11.3 | 0.00 | 0.00 | 0.00 | 47 | 1014.0 |
| 20260508003645 | 11 | 232 | 3.2 | 6.4 | 0.00 | 0.00 | 0.00 | 52 | 1014.0 |
| 20260508003137 | 11 | 183 | 6.4 | 12.9 | 0.00 | 0.00 | 0.00 | 50 | 1014.0 |
| 20260508002633 | 11 | 190 | 8.0 | 17.7 | 0.00 | 0.00 | 0.00 | 50 | 1013.8 |
| 20260508002131 | 12 | 54 | 0.0 | 1.6 | 0.00 | 0.00 | 0.00 | 53 | 1014.0 |
| 20260508001625 | 12 | 175 | 6.4 | 11.3 | 0.00 | 0.00 | 0.00 | 50 | 1013.9 |
| 20260508001122 | 11 | 237 | 6.4 | 11.3 | 0.00 | 0.00 | 0.00 | 48 | 1013.8 |
| 20260508000617 | 11 | 93 | 0.0 | 0.0 | 0.00 | 0.00 | 0.00 | 58 | 1014.0 |
| 20260508000115 | 12 | 38 | 0.0 | 3.2 | 0.00 | 0.00 | 0.00 | 47 | 1013.7 |
| 20260507235612 | 12 | 186 | 3.2 | 4.8 | 0.00 | 0.00 | 0.00 | 47 | 1013.6 |
| 20260507235109 | 12 | 183 | 4.8 | 9.7 | 0.00 | 0.00 | 0.00 | 50 | 1013.4 |
| 20260507234606 | 12 | 307 | 3.2 | 17.7 | 0.00 | 0.00 | 0.00 | 47 | 1013.4 |
| 20260507234102 | 12 | 207 | 3.2 | 4.8 | 0.00 | 0.00 | 0.00 | 48 | 1013.7 |
| 20260507233559 | 12 | 209 | 14.5 | 20.9 | 0.00 | 0.00 | 0.00 | 47 | 1013.0 |
| 20260507233058 | 12 | 169 | 4.8 | 4.8 | 0.00 | 0.00 | 0.00 | 47 | 1013.4 |
| 20260507232553 | 13 | 220 | 0.0 | 3.2 | 0.00 | 0.00 | 0.00 | 47 | 1013.0 |
| 20260507232051 | 13 | 63 | 3.2 | 4.8 | 0.00 | 0.00 | 0.00 | 46 | 1013.0 |
| 20260507231547 | 13 | 323 | 0.0 | 4.8 | 0.00 | 0.00 | 0.00 | 46 | 1013.2 |
| 20260507231045 | 13 | 114 | 4.8 | 6.4 | 0.00 | 0.00 | 0.00 | 46 | 1013.3 |
| 20260507230541 | 13 | 95 | 3.2 | 3.2 | 0.00 | 0.00 | 0.00 | 46 | 1013.0 |
| 20260507230038 | 13 | 211 | 0.0 | 1.6 | 0.00 | 0.00 | 0.00 | 48 | 1012.9 |
| 20260507225533 | 13 | 179 | 1.6 | 1.6 | 0.00 | 0.00 | 0.00 | 45 | 1012.9 |
| 20260507225029 | 13 | 331 | 3.2 | 3.2 | 0.00 | 0.00 | 0.00 | 44 | 1012.9 |
| 20260507224525 | 13 | 104 | 3.2 | 4.8 | 0.00 | 0.00 | 0.00 | 44 | 1012.9 |
| 20260507224022 | 13 | 257 | 3.2 | 4.8 | 0.00 | 0.00 | 0.00 | 43 | 1013.0 |
| 20260507223518 | 14 | 247 | 4.8 | 6.4 | 0.00 | 0.00 | 0.00 | 46 | 1012.9 |
| 20260507223016 | 15 | 191 | 1.6 | 3.2 | 0.00 | 0.00 | 0.00 | 46 | 1012.6 |
| 20260507222513 | 15 | 295 | 3.2 | 3.2 | 0.00 | 0.00 | 0.00 | 45 | 1012.8 |
| 20260507222008 | 16 | 220 | 4.8 | 6.4 | 0.00 | 0.00 | 0.00 | 43 | 1012.7 |
| 20260507221505 | 16 | 279 | 1.6 | 3.2 | 0.00 | 0.00 | 0.00 | 42 | 1012.5 |
| 20260507221002 | 15 | 46 | 3.2 | 14.5 | 0.00 | 0.00 | 0.00 | 43 | 1012.4 |
| 20260507220459 | 14 | 23 | 3.2 | 9.7 | 0.00 | 0.00 | 0.00 | 46 | 1012.5 |
| 20260507215956 | 15 | 203 | 6.4 | 9.7 | 0.00 | 0.00 | 0.00 | 43 | 1012.3 |
| 20260507215452 | 15 | 222 | 3.2 | 14.5 | 0.00 | 0.00 | 0.00 | 43 | 1012.5 |
| 20260507214950 | 17 | 250 | 4.8 | 4.8 | 0.00 | 0.00 | 0.00 | 43 | 1012.3 |
| 20260507214447 | 16 | 241 | 4.8 | 9.7 | 0.00 | 0.00 | 0.00 | 43 | 1011.9 |
| 20260507213943 | 16 | 178 | 9.7 | 20.9 | 0.00 | 0.00 | 0.00 | 40 | 1012.0 |
| 20260507213440 | 16 | 210 | 0.0 | 4.8 | 0.00 | 0.00 | 0.00 | 44 | 1011.9 |
| 20260507212938 | 16 | 133 | 8.0 | 14.5 | 0.00 | 0.00 | 0.00 | 40 | 1011.8 |
| 20260507212433 | 16 | 214 | 3.2 | 4.8 | 0.00 | 0.00 | 0.00 | 40 | 1012.0 |
| 20260507211930 | 16 | 340 | 4.8 | 11.3 | 0.00 | 0.00 | 0.00 | 40 | 1012.1 |
| 20260507211426 | 16 | 284 | 1.6 | 4.8 | 0.00 | 0.00 | 0.00 | 44 | 1011.9 |
| 20260507210923 | 16 | 279 | 4.8 | 9.7 | 0.00 | 0.00 | 0.00 | 45 | 1011.8 |
| 20260507210420 | 15 | 244 | 8.0 | 11.3 | 0.00 | 0.00 | 0.00 | 45 | 1011.8 |
| 20260507205917 | 16 | 286 | 3.2 | 6.4 | 0.00 | 0.00 | 0.00 | 47 | 1011.7 |
| 20260507205414 | 16 | 147 | 6.4 | 11.3 | 0.00 | 0.00 | 0.00 | 43 | 1011.5 |
| 20260507204910 | 16 | 194 | 11.3 | 16.1 | 0.00 | 0.00 | 0.00 | 45 | 1011.6 |
| 20260507204406 | 16 | 219 | 11.3 | 16.1 | 0.00 | 0.00 | 0.00 | 45 | 1012.0 |
| 20260507203904 | 16 | 273 | 8.0 | 14.5 | 0.00 | 0.00 | 0.00 | 48 | 1011.9 |
| 20260507203402 | 16 | 241 | 3.2 | 4.8 | 0.00 | 0.00 | 0.00 | 44 | 1012.0 |
| 20260507202858 | 16 | 292 | 4.8 | 11.3 | 0.00 | 0.00 | 0.00 | 41 | 1012.0 |
| 20260507202354 | 16 | 195 | 8.0 | 24.1 | 0.00 | 0.00 | 0.00 | 45 | 1011.9 |
| 20260507201850 | 17 | 335 | 3.2 | 17.7 | 0.00 | 0.00 | 0.00 | 45 | 1012.0 |
| 20260507201346 | 16 | 193 | 12.9 | 17.7 | 0.00 | 0.00 | 0.00 | 44 | 1012.1 |
| 20260507200842 | 15 | 212 | 8.0 | 17.7 | 0.00 | 0.00 | 0.00 | 49 | 1011.8 |
| 20260507200338 | 15 | 138 | 16.1 | 30.6 | 0.00 | 0.00 | 0.00 | 48 | 1011.9 |
| 20260507195835 | 16 | 316 | 6.4 | 9.7 | 0.00 | 0.00 | 0.00 | 46 | 1011.9 |
| 20260507195332 | 16 | 356 | 8.0 | 17.7 | 0.00 | 0.00 | 0.00 | 45 | 1012.0 |
| 20260507194829 | 16 | 217 | 1.6 | 6.4 | 0.00 | 0.00 | 0.00 | 49 | 1012.2 |
| 20260507194325 | 16 | 231 | 6.4 | 12.9 | 0.00 | 0.00 | 0.00 | 48 | 1012.3 |
| 20260507193822 | 16 | 229 | 9.7 | 14.5 | 0.00 | 0.00 | 0.00 | 48 | 1011.7 |
| 20260507193320 | 17 | 203 | 6.4 | 12.9 | 0.00 | 0.00 | 0.00 | 43 | 1012.0 |
| 20260507192814 | 16 | 175 | 6.4 | 9.7 | 0.00 | 0.00 | 0.00 | 46 | 1012.0 |
| 20260507192312 | 16 | 263 | 6.4 | 14.5 | 0.00 | 0.00 | 0.00 | 46 | 1012.0 |
| 20260507191808 | 16 | 169 | 8.0 | 14.5 | 0.00 | 0.00 | 0.00 | 48 | 1012.0 |
| 20260507191304 | 16 | 256 | 4.8 | 11.3 | 0.00 | 0.00 | 0.00 | 45 | 1012.1 |
| 20260507190802 | 16 | 333 | 3.2 | 3.2 | 0.00 | 0.00 | 0.00 | 46 | 1012.3 |
| 20260507190300 | 16 | 250 | 3.2 | 4.8 | 0.00 | 0.00 | 0.00 | 47 | 1012.5 |
| 20260507185758 | 16 | 276 | 4.8 | 6.4 | 0.00 | 0.00 | 0.00 | 48 | 1012.6 |
| 20260507185254 | 16 | 234 | 9.7 | 16.1 | 0.00 | 0.00 | 0.00 | 48 | 1012.3 |
| 20260507184752 | 17 | 212 | 9.7 | 12.9 | 0.00 | 0.00 | 0.00 | 47 | 1012.4 |
| 20260507184250 | 17 | 233 | 6.4 | 9.7 | 0.00 | 0.00 | 0.00 | 50 | 1012.2 |
| 20260507183747 | 16 | 213 | 8.0 | 12.9 | 0.00 | 0.00 | 0.00 | 52 | 1012.2 |
| 20260507183244 | 17 | 173 | 4.8 | 12.9 | 0.00 | 0.00 | 0.00 | 50 | 1012.2 |
| 20260507182742 | 16 | 129 | 6.4 | 16.1 | 0.00 | 0.00 | 0.00 | 45 | 1012.2 |
| 20260507182241 | 16 | 188 | 6.4 | 12.9 | 0.00 | 0.00 | 0.00 | 48 | 1012.1 |
| 20260507181739 | 16 | 302 | 4.8 | 6.4 | 0.00 | 0.00 | 0.00 | 52 | 1012.4 |
| 20260507181235 | 17 | 253 | 8.0 | 16.1 | 0.00 | 0.00 | 0.00 | 51 | 1012.2 |
| 20260507180732 | 16 | 260 | 0.0 | 11.3 | 0.00 | 0.00 | 0.00 | 48 | 1012.3 |
| 20260507180229 | 16 | 324 | 4.8 | 9.7 | 0.00 | 0.00 | 0.00 | 48 | 1012.1 |
| 20260507175724 | 16 | 310 | 4.8 | 9.7 | 0.00 | 0.00 | 0.00 | 53 | 1012.2 |
| 20260507175221 | 16 | 11 | 1.6 | 11.3 | 0.00 | 0.00 | 0.00 | 52 | 1012.5 |
| 20260507174719 | 16 | 206 | 4.8 | 16.1 | 0.00 | 0.00 | 0.00 | 51 | 1012.5 |
| 20260507174217 | 15 | 53 | 0.0 | 11.3 | 0.00 | 0.00 | 0.00 | 50 | 1012.7 |
| 20260507173715 | 15 | 69 | 8.0 | 11.3 | 0.00 | 0.00 | 0.00 | 52 | 1012.7 |
| 20260507173211 | 15 | 270 | 8.0 | 11.3 | 0.00 | 0.00 | 0.00 | 56 | 1012.8 |
| 20260507172708 | 15 | 156 | 3.2 | 17.7 | 0.00 | 0.00 | 0.00 | 55 | 1013.0 |
| 20260507172204 | 14 | 226 | 9.7 | 12.9 | 0.00 | 0.00 | 0.00 | 56 | 1013.0 |
| 20260507171704 | 13 | 259 | 11.3 | 14.5 | 0.00 | 0.00 | 0.00 | 60 | 1013.2 |
| 20260507171202 | 14 | 69 | 19.3 | 24.1 | 0.00 | 0.00 | 0.00 | 59 | 1013.0 |
| 20260507170659 | 14 | 270 | 6.4 | 6.4 | 0.00 | 0.00 | 0.00 | 61 | 1013.3 |
| 20260507170156 | 13 | 281 | 0.0 | 6.4 | 0.00 | 0.00 | 0.00 | 60 | 1013.3 |
| 20260507165651 | 13 | 46 | 4.8 | 11.3 | 0.00 | 0.00 | 0.00 | 63 | 1013.4 |
| 20260507165148 | 13 | 166 | 6.4 | 9.7 | 0.00 | 0.00 | 0.00 | 59 | 1013.3 |
| 20260507164644 | 13 | 52 | 6.4 | 14.5 | 0.00 | 0.00 | 0.00 | 60 | 1013.3 |
| 20260507164141 | 14 | 203 | 9.7 | 12.9 | 0.00 | 0.00 | 0.00 | 60 | 1013.6 |
| 20260507163638 | 13 | 264 | 3.2 | 14.5 | 0.00 | 0.00 | 0.00 | 59 | 1013.5 |
| 20260507163136 | 13 | 183 | 6.4 | 17.7 | 0.00 | 0.00 | 0.00 | 60 | 1013.8 |
| 20260507162632 | 13 | 105 | 12.9 | 14.5 | 0.00 | 0.00 | 0.00 | 61 | 1013.8 |
| 20260507162128 | 13 | 292 | 8.0 | 11.3 | 0.00 | 0.00 | 0.00 | 59 | 1013.7 |
| 20260507161624 | 13 | 261 | 3.2 | 4.8 | 0.00 | 0.00 | 0.00 | 65 | 1013.8 |
| 20260507161121 | 14 | 186 | 6.4 | 11.3 | 0.00 | 0.00 | 0.00 | 61 | 1013.9 |
| 20260507160618 | 14 | 287 | 1.6 | 9.7 | 0.00 | 0.00 | 0.00 | 57 | 1013.8 |
| 20260507160114 | 14 | 200 | 1.6 | 6.4 | 0.00 | 0.00 | 0.00 | 62 | 1014.0 |
| 20260507155609 | 14 | 163 | 4.8 | 4.8 | 0.00 | 0.00 | 0.00 | 63 | 1014.0 |
| 20260507155107 | 13 | 286 | 1.6 | 1.6 | 0.00 | 0.00 | 0.00 | 60 | 1014.1 |
| 20260507154603 | 13 | 193 | 4.8 | 14.5 | 0.00 | 0.00 | 0.00 | 64 | 1014.3 |
| 20260507154100 | 13 | 214 | 0.0 | 3.2 | 0.00 | 0.00 | 0.00 | 61 | 1014.1 |
| 20260507153557 | 14 | 246 | 4.8 | 12.9 | 0.00 | 0.00 | 0.00 | 63 | 1014.4 |
| 20260507153053 | 13 | 255 | 1.6 | 4.8 | 0.00 | 0.00 | 0.00 | 62 | 1014.4 |
| 20260507152550 | 13 | 312 | 6.4 | 6.4 | 0.00 | 0.00 | 0.00 | 62 | 1014.4 |
| 20260507152046 | 13 | 315 | 6.4 | 6.4 | 0.00 | 0.00 | 0.00 | 61 | 1014.3 |
| 20260507151542 | 13 | 284 | 6.4 | 6.4 | 0.00 | 0.00 | 0.00 | 63 | 1014.4 |
| 20260507151039 | 12 | 120 | 0.0 | 6.4 | 0.00 | 0.00 | 0.00 | 62 | 1014.4 |
| 20260507150536 | 12 | 7 | 1.6 | 3.2 | 0.00 | 0.00 | 0.00 | 63 | 1014.5 |
| 20260507150033 | 12 | 40 | 1.6 | 3.2 | 0.00 | 0.00 | 0.00 | 64 | 1014.6 |
| 20260507145528 | 12 | 22 | 1.6 | 4.8 | 0.00 | 0.00 | 0.00 | 61 | 1014.4 |
| 20260507145026 | 12 | 58 | 1.6 | 4.8 | 0.00 | 0.00 | 0.00 | 65 | 1014.7 |
| 20260507144522 | 12 | 32 | 0.0 | 4.8 | 0.00 | 0.00 | 0.00 | 64 | 1014.6 |
| 20260507144020 | 12 | 51 | 1.6 | 3.2 | 0.00 | 0.00 | 0.00 | 66 | 1014.6 |
| 20260507143517 | 12 | 54 | 3.2 | 4.8 | 0.00 | 0.00 | 0.00 | 63 | 1014.7 |
| 20260507143014 | 12 | 81 | 3.2 | 4.8 | 0.00 | 0.00 | 0.00 | 59 | 1015.0 |
| 20260507142509 | 12 | 246 | 1.6 | 4.8 | 0.00 | 0.00 | 0.00 | 63 | 1014.8 |
| 20260507142007 | 11 | 255 | 3.2 | 3.2 | 0.00 | 0.00 | 0.00 | 61 | 1015.0 |
| 20260507141502 | 11 | 131 | 1.6 | 3.2 | 0.00 | 0.00 | 0.00 | 67 | 1015.2 |
| 20260507140959 | 11 | 102 | 3.2 | 4.8 | 0.00 | 0.00 | 0.00 | 66 | 1015.4 |
| 20260507140456 | 11 | 87 | 0.0 | 1.6 | 0.00 | 0.00 | 0.00 | 65 | 1015.4 |
| 20260507135953 | 11 | 4 | 3.2 | 9.7 | 0.00 | 0.00 | 0.00 | 67 | 1015.2 |
| 20260507135450 | 11 | 323 | 1.6 | 6.4 | 0.00 | 0.00 | 0.00 | 66 | 1015.4 |
| 20260507134947 | 10 | 23 | 1.6 | 3.2 | 0.00 | 0.00 | 0.00 | 66 | 1015.4 |
| 20260507134443 | 10 | 34 | 1.6 | 3.2 | 0.00 | 0.00 | 0.00 | 66 | 1015.4 |
| 20260507133935 | 10 | 129 | 0.0 | 0.0 | 0.00 | 0.00 | 0.00 | 65 | 1015.5 |
| 20260507133431 | 10 | 135 | 0.0 | 0.0 | 0.00 | 0.00 | 0.00 | 66 | 1015.7 |